GW4013 Weather Reports


Display with metric or nautical units.
time (UTC)temp
F
wind
direction
speed
MPH
gust
MPH
rain 1hr
in
rain 24hr
in
rain mn
in
humidity
%
barometer
mb
20260506231458 58 91 3.0 4.0 0.00 0.12 0.12 99 1005.9
20260506230458 58 91 3.0 4.0 0.00 0.12 0.12 99 1005.7
20260506225458 58 91 3.0 4.0 0.00 0.12 0.12 99 1005.6
20260506224457 58 91 3.0 4.0 0.00 0.12 0.12 99 1005.7
20260506223456 58 114 5.0 6.0 0.00 0.12 0.12 99 1005.7
20260506222455 58 114 5.0 6.0 0.00 0.12 0.12 99 1005.5
20260506221454 58 127 4.0 4.0 0.00 0.12 0.12 99 1005.5
20260506220453 58 159 2.0 4.0 0.00 0.12 0.12 99 1005.6
20260506215451 58 174 3.0 7.0 0.00 0.12 0.12 99 1005.7
20260506214449 58 141 1.0 2.0 0.00 0.12 0.12 99 1005.4
20260506213449 58 124 3.0 3.0 0.00 0.12 0.12 99 1005.4
20260506212448 58 191 2.0 4.0 0.00 0.12 0.12 99 1005.5
20260506211444 59 128 3.0 4.0 0.00 0.12 0.12 99 1005.6
20260506210444 58 155 2.0 3.0 0.00 0.12 0.12 99 1005.5
20260506205443 59 121 3.0 5.0 0.02 0.12 0.12 99 1005.8
20260506204443 59 121 3.0 5.0 0.00 0.12 0.12 99 1005.9
20260506203443 58 138 8.0 9.0 0.05 0.12 0.12 99 1006.0
20260506202444 59 142 2.0 6.0 0.09 0.11 0.11 99 1005.9
20260506201438 59 142 2.0 6.0 0.09 0.09 0.09 99 1006.2
20260506200436 59 212 4.0 6.0 0.00 0.08 0.08 99 1006.0
20260506195436 59 230 3.0 5.0 0.00 0.08 0.08 99 1006.3
20260506194436 59 172 3.0 6.0 0.05 0.08 0.08 98 1006.3
20260506193435 59 214 5.0 5.0 0.02 0.07 0.07 98 1006.3
20260506192435 59 194 3.0 4.0 0.00 0.07 0.07 98 1006.4
20260506191434 59 128 1.0 6.0 0.00 0.07 0.07 98 1006.6
20260506190433 59 141 10.0 11.0 0.00 0.07 0.07 98 1006.3
20260506185433 59 125 2.0 11.0 0.02 0.07 0.07 97 1006.6
20260506184432 59 206 6.0 6.0 0.00 0.06 0.06 97 1006.6
20260506183431 59 114 4.0 6.0 0.02 0.06 0.06 97 1007.0
20260506182426 59 206 4.0 4.0 0.07 0.06 0.06 97 1007.1
20260506181421 59 204 4.0 4.0 0.05 0.05 0.05 96 1007.1
20260506180420 60 113 3.0 4.0 0.05 0.04 0.04 96 1006.9
20260506175419 60 168 4.0 6.0 0.05 0.03 0.03 95 1006.8
20260506174419 60 140 6.0 17.0 0.02 0.02 0.02 94 1007.0
20260506173419 60 179 3.0 4.0 0.05 0.02 0.02 93 1007.3
20260506172419 60 117 4.0 6.0 0.02 0.01 0.01 91 1007.7
20260506171419 61 180 3.0 9.0 0.00 0.00 0.00 90 1007.9
20260506170419 61 158 5.0 7.0 0.02 0.00 0.00 89 1008.0
20260506165416 62 176 6.0 9.0 0.00 0.00 0.00 87 1008.1
20260506164414 63 152 3.0 3.0 0.00 0.00 0.00 84 1008.1
20260506163413 63 232 5.0 7.0 0.00 0.00 0.00 84 1007.9
20260506162412 63 202 4.0 6.0 0.00 0.00 0.00 85 1008.1
20260506161407 64 215 7.0 11.0 0.00 0.00 0.00 80 1008.0
20260506160407 65 178 5.0 6.0 0.00 0.00 0.00 78 1008.1
20260506155402 66 152 3.0 5.0 0.00 0.00 0.00 77 1008.4
20260506153519 65 126 6.0 10.0 0.00 0.00 0.00 77 1008.4
20260506152519 66 209 9.0 10.0 0.00 0.00 0.00 75 1008.2
20260506151514 67 148 4.0 6.0 0.00 0.00 0.00 75 1008.0
20260506150513 67 214 6.0 6.0 0.00 0.00 0.00 74 1008.3
20260506145513 67 211 7.0 10.0 0.00 0.00 0.00 74 1008.4
20260506144513 67 141 4.0 7.0 0.00 0.00 0.00 74 1008.1
20260506143508 67 180 5.0 6.0 0.00 0.00 0.00 74 1008.5
20260506142503 66 151 8.0 11.0 0.00 0.00 0.00 75 1008.6
20260506141459 67 166 5.0 8.0 0.00 0.00 0.00 75 1008.6
20260506140454 66 155 4.0 6.0 0.00 0.00 0.00 77 1008.5
20260506135454 65 212 4.0 6.0 0.00 0.00 0.00 79 1008.7
20260506134452 64 210 9.0 9.0 0.00 0.00 0.00 79 1008.5
20260506133451 64 185 5.0 8.0 0.00 0.00 0.00 80 1008.4
20260506132451 64 177 4.0 5.0 0.00 0.00 0.00 80 1008.6
20260506131450 63 154 7.0 9.0 0.00 0.00 0.00 82 1008.6
20260506130450 63 153 2.0 3.0 0.00 0.00 0.00 83 1008.5
20260506125446 62 159 3.0 6.0 0.00 0.00 0.00 84 1008.7
20260506124441 62 173 2.0 6.0 0.00 0.00 0.00 84 1009.0
20260506123437 61 102 3.0 6.0 0.00 0.00 0.00 85 1009.1
20260506122436 61 94 1.0 6.0 0.00 0.00 0.00 86 1009.2
20260506121431 60 192 4.0 10.0 0.00 0.00 0.00 87 1008.9
20260506120426 60 206 5.0 9.0 0.00 0.00 0.00 87 1009.1
20260506115421 60 193 3.0 9.0 0.00 0.00 0.00 88 1009.1
20260506114416 59 132 3.0 4.0 0.00 0.00 0.00 88 1009.1
20260506113412 59 152 2.0 4.0 0.00 0.00 0.00 89 1009.3
20260506112412 59 109 2.0 5.0 0.00 0.00 0.00 89 1009.2
20260506111407 58 222 2.0 6.0 0.00 0.00 0.00 90 1009.1
20260506110408 58 111 4.0 6.0 0.00 0.00 0.00 90 1009.3
20260506105406 58 116 2.0 9.0 0.00 0.00 0.00 91 1009.3
20260506104401 57 180 2.0 7.0 0.00 0.00 0.00 91 1009.1
20260506103356 57 179 4.0 4.0 0.00 0.00 0.00 91 1009.4
20260506102351 57 137 2.0 5.0 0.00 0.00 0.00 92 1009.2
20260506101350 57 154 2.0 3.0 0.00 0.00 0.00 92 1009.0
20260506100346 57 134 3.0 5.0 0.00 0.00 0.00 91 1009.1
20260506095341 57 127 5.0 8.0 0.00 0.00 0.00 92 1009.1
20260506094337 57 261 3.0 6.0 0.00 0.00 0.00 91 1008.9
20260506093337 57 184 3.0 6.0 0.00 0.00 0.00 91 1009.0
20260506092333 57 162 4.0 6.0 0.00 0.00 0.00 91 1009.0
20260506091327 57 175 4.0 4.0 0.00 0.00 0.00 90 1008.9
20260506090322 57 180 6.0 7.0 0.00 0.00 0.00 90 1009.0
20260506085320 57 114 5.0 7.0 0.00 0.00 0.00 90 1009.1
20260506084320 57 200 5.0 8.0 0.00 0.00 0.00 89 1009.0
20260506083320 57 187 4.0 6.0 0.00 0.00 0.00 89 1009.3
20260506082319 58 197 5.0 7.0 0.00 0.00 0.00 89 1009.1
20260506081320 58 228 11.0 15.0 0.00 0.00 0.00 88 1009.1
20260506080319 58 131 4.0 8.0 0.00 0.00 0.00 88 1009.0
20260506073309 58 151 2.0 4.0 0.00 0.00 0.00 87 1009.2
20260506072309 58 101 2.0 6.0 0.00 0.00 0.00 87 1009.0
20260506071305 59 121 4.0 8.0 0.00 0.00 0.00 86 1009.3
20260506070304 59 157 5.0 6.0 0.00 0.00 0.00 85 1009.2
20260506062248 59 198 4.0 9.0 0.00 0.00 0.00 84 1008.9
20260506061246 60 195 4.0 6.0 0.00 0.00 0.00 83 1008.8
20260506060242 60 226 6.0 9.0 0.00 0.00 0.00 83 1008.9
20260506051231 61 197 5.0 5.0 0.00 0.00 0.00 81 1009.3
20260506050226 61 157 3.0 5.0 0.00 0.00 0.00 80 1009.3
20260506044220 62 163 2.0 9.0 0.00 0.00 0.00 77 1009.3
20260506043215 62 185 3.0 4.0 0.00 0.00 0.00 76 1009.3
20260506042212 63 194 2.0 6.0 0.00 0.00 0.00 75 1009.5
20260506041207 63 195 2.0 7.0 0.00 0.00 0.00 74 1009.3
20260506040207 63 196 3.0 8.0 0.00 0.00 0.00 73 1009.2
20260506035206 63 204 4.0 5.0 0.00 0.00 0.00 72 1009.4
20260506034206 63 203 8.0 9.0 0.00 0.00 0.00 71 1009.2
20260506033206 64 136 2.0 4.0 0.00 0.00 0.00 71 1009.4
20260506032206 64 150 4.0 12.0 0.00 0.00 0.00 71 1009.4
20260506031205 64 158 4.0 9.0 0.00 0.00 0.00 70 1009.2
20260506030200 64 131 6.0 6.0 0.00 0.00 0.00 70 1009.4
20260506025159 64 203 9.0 10.0 0.00 0.00 0.00 69 1009.2
20260506024159 64 142 5.0 9.0 0.00 0.00 0.00 70 1009.1
20260506023159 64 135 3.0 7.0 0.00 0.00 0.00 69 1009.2
20260506022159 64 179 5.0 6.0 0.00 0.00 0.00 68 1009.2
20260506021159 64 124 2.0 9.0 0.00 0.00 0.00 68 1009.0
20260506020154 64 169 2.0 11.0 0.00 0.00 0.00 68 1009.3
20260506015149 64 224 3.0 3.0 0.00 0.00 0.00 69 1009.0
20260506014147 64 195 4.0 5.0 0.00 0.00 0.00 68 1009.1
20260506013142 64 201 7.0 9.0 0.00 0.00 0.00 67 1008.9
20260506012141 64 177 5.0 6.0 0.00 0.00 0.00 67 1008.8
20260506011141 64 202 6.0 10.0 0.00 0.00 0.00 66 1008.7
20260506010136 65 193 5.0 5.0 0.00 0.00 0.00 65 1008.5
20260506005136 65 128 6.0 9.0 0.00 0.00 0.00 65 1008.6
20260506004135 65 219 5.0 8.0 0.00 0.00 0.00 64 1008.5
20260506003133 66 162 4.0 9.0 0.00 0.00 0.00 64 1008.1
20260506002131 66 175 4.0 6.0 0.00 0.00 0.00 64 1007.7
20260506001130 66 119 6.0 7.0 0.00 0.00 0.00 63 1007.6
20260506000125 67 159 2.0 8.0 0.00 0.00 0.00 63 1007.7
20260505235120 67 165 5.0 17.0 0.00 0.00 0.00 62 1007.7
20260505234119 67 180 5.0 7.0 0.00 0.00 0.00 62 1007.3
20260505233114 68 200 6.0 9.0 0.00 0.00 0.00 62 1007.2
20260505232114 68 215 6.0 10.0 0.00 0.00 0.00 61 1007.4